$Date,$Time,DM0201B,DM0203B,DM0205B,DM0207B,DM0209B
08/09/99,00:00:01,0,0,0,0,0
08/09/99,00:05:01,665,183,-19,0,949
08/09/99,00:10:01,663,183,-19,0,947
08/09/99,00:15:01,717,183,-19,0,947
08/09/99,00:20:01,694,185,-19,0,947
08/09/99,00:25:01,707,175,-19,0,947
08/09/99,00:30:01,754,185,-19,0,947
08/09/99,00:35:01,785,185,-19,0,947
08/09/99,00:40:01,839,185,-19,0,947
08/09/99,00:45:01,780,184,-19,0,947
08/09/99,00:50:01,715,186,-19,0,947
08/09/99,00:55:01,670,186,-19,0,947
08/09/99,01:00:01,696,186,-19,0,948
08/09/99,01:05:01,665,184,-19,0,948
08/09/99,01:10:01,740,184,-19,0,946
08/09/99,01:15:01,730,184,-19,0,946
08/09/99,01:20:01,863,177,-19,0,944
08/09/99,01:25:01,872,177,-19,0,946
08/09/99,01:30:01,816,176,-19,0,946
08/09/99,01:35:01,906,175,-19,0,946
08/09/99,01:40:01,829,175,-19,0,946
08/09/99,01:45:01,648,173,-19,0,948
08/09/99,01:50:01,718,173,-19,0,948
08/09/99,01:55:01,737,177,-19,0,948
08/09/99,02:00:01,746,177,-19,0,948
08/09/99,02:05:01,688,190,-19,0,950
08/09/99,02:10:01,662,177,-19,0,950
08/09/99,02:15:01,662,167,-19,0,948
08/09/99,02:20:01,704,169,-19,0,948
08/09/99,02:25:01,759,169,-19,0,948
08/09/99,02:30:01,807,180,-19,0,948
08/09/99,02:35:01,733,169,-19,0,948
08/09/99,02:40:01,773,169,-19,0,946
08/09/99,02:45:01,677,171,-19,0,948
08/09/99,02:50:01,739,171,-19,0,948
08/09/99,02:55:01,753,183,-19,0,948
08/09/99,03:00:01,752,177,-19,0,948
08/09/99,03:05:01,789,181,-19,0,948
08/09/99,03:10:01,813,176,-19,0,948
08/09/99,03:15:01,855,187,-19,0,948
08/09/99,03:20:01,722,174,-19,0,948
08/09/99,03:25:01,658,185,-19,0,948
08/09/99,03:30:01,852,174,-19,0,950
08/09/99,03:35:01,610,173,-19,0,950
08/09/99,03:40:01,429,185,-19,0,952
08/09/99,03:45:01,588,170,-19,0,950
08/09/99,03:50:01,697,172,-19,0,948
08/09/99,03:55:01,724,173,-19,0,948
08/09/99,04:00:01,894,173,-19,0,946
08/09/99,04:05:01,837,173,-19,0,946
08/09/99,04:10:01,847,173,-19,0,948
08/09/99,04:15:01,732,173,-19,0,948
08/09/99,04:20:01,946,184,-19,0,948
08/09/99,04:25:01,733,184,-19,0,949
08/09/99,04:30:01,738,174,-19,0,949
08/09/99,04:35:01,778,174,-19,0,949
08/09/99,04:40:01,728,174,-19,0,949
08/09/99,04:45:01,798,174,-19,0,951
08/09/99,04:50:01,814,174,-19,0,951
08/09/99,04:55:01,902,174,-19,0,949
08/09/99,05:00:01,849,174,-19,0,948
08/09/99,05:05:01,868,174,-19,0,950
08/09/99,05:10:01,886,174,-19,0,948
08/09/99,05:15:01,796,162,-21,0,948
08/09/99,05:20:01,930,167,-21,0,948
08/09/99,05:25:01,986,167,-21,0,948
08/09/99,05:30:01,791,167,-21,0,948
08/09/99,05:35:01,800,167,-21,0,948
08/09/99,05:40:01,849,163,-21,0,948
08/09/99,05:45:01,811,176,-21,0,950
08/09/99,05:50:01,788,166,-21,0,950
08/09/99,05:55:01,790,163,-21,0,950
08/09/99,06:00:01,831,173,-21,0,950
08/09/99,06:05:01,816,174,-21,0,952
08/09/99,06:10:01,754,172,-21,0,952
08/09/99,06:15:01,720,172,-21,0,952
08/09/99,06:20:01,784,172,-21,0,952
08/09/99,06:25:01,747,172,-21,0,950
08/09/99,06:30:01,782,172,-21,0,950
08/09/99,06:35:01,918,172,-21,0,950
08/09/99,06:40:01,872,172,-21,0,950
08/09/99,06:45:01,850,172,-21,0,950
08/09/99,06:50:01,884,173,-21,0,948
08/09/99,06:55:01,850,164,-21,0,950
08/09/99,07:00:01,815,174,-21,0,950
08/09/99,07:05:01,822,174,-21,0,950
08/09/99,07:10:01,851,168,-19,0,952
08/09/99,07:15:01,865,177,-19,0,952
08/09/99,07:20:01,720,177,-19,0,952
08/09/99,07:25:01,749,177,-19,0,952
08/09/99,07:30:01,747,177,-19,0,952
08/09/99,07:35:01,796,166,-19,0,952
08/09/99,07:40:01,741,179,-19,0,952
08/09/99,07:45:01,737,179,-19,0,952
08/09/99,07:50:01,793,179,-19,0,952
08/09/99,07:55:01,742,179,-19,0,952
08/09/99,08:00:01,772,179,-19,0,952
08/09/99,08:05:01,816,179,-19,0,952
08/09/99,08:10:01,738,184,-19,0,952
08/09/99,08:15:01,701,184,-19,0,954
08/09/99,08:20:01,580,173,-19,0,954
08/09/99,08:25:01,522,173,-19,0,954
08/09/99,08:30:01,483,173,-19,0,954
08/09/99,08:35:01,436,173,-19,0,954
08/09/99,08:40:01,578,171,-19,0,954
08/09/99,08:45:01,579,171,-19,0,954
08/09/99,08:50:01,615,164,-19,0,954
08/09/99,08:55:01,571,174,-19,0,954
08/09/99,09:00:01,643,174,-19,0,954
08/09/99,09:05:01,585,174,-19,0,954
08/09/99,09:10:01,620,164,-19,0,954
08/09/99,09:15:01,562,175,-19,0,954
08/09/99,09:20:01,603,164,-19,0,954
08/09/99,09:25:01,615,164,-19,0,954
08/09/99,09:30:01,552,164,-19,0,956
08/09/99,09:35:01,591,164,-19,0,956
08/09/99,09:40:01,456,164,-19,0,956
08/09/99,09:45:01,495,164,-19,0,956
08/09/99,09:50:01,490,164,-19,0,956
08/09/99,09:55:01,558,164,-19,0,956
08/09/99,10:00:01,501,164,-19,0,956
08/09/99,10:05:01,452,162,-19,0,956
08/09/99,10:10:01,485,150,-19,0,956
08/09/99,10:15:01,501,161,-19,0,956
08/09/99,10:20:01,453,171,-19,0,956
08/09/99,10:25:01,497,160,-19,0,956
08/09/99,10:30:01,520,160,-19,0,956
08/09/99,10:35:01,542,160,-19,0,956
08/09/99,10:40:01,507,160,-19,0,956
08/09/99,10:45:01,498,160,-19,0,956
08/09/99,10:50:01,551,160,-19,0,956
08/09/99,10:55:01,533,161,-19,0,956
08/09/99,11:00:01,485,173,-19,0,956
08/09/99,11:05:01,507,173,-19,0,956
08/09/99,11:10:01,448,173,-19,0,956
08/09/99,11:15:01,539,173,-19,0,956
08/09/99,11:20:01,554,173,-19,0,956
08/09/99,11:25:01,540,175,-19,0,956
08/09/99,11:30:01,636,175,-19,0,956
08/09/99,11:35:01,586,175,-19,0,956
08/09/99,11:40:01,640,176,-19,0,956
08/09/99,11:45:01,558,176,-19,0,956
08/09/99,11:50:01,589,176,-19,0,956
08/09/99,11:55:01,583,166,-19,0,956
08/09/99,12:00:01,615,176,-19,0,956
08/09/99,12:05:01,640,176,-19,0,956
08/09/99,12:10:01,594,176,-19,0,956
08/09/99,12:15:01,547,166,-19,0,956
08/09/99,12:20:01,603,176,-19,0,956
08/09/99,12:25:01,536,166,-19,0,956
08/09/99,12:30:01,529,166,-19,0,956
08/09/99,12:35:01,550,166,-19,0,956
08/09/99,12:40:01,507,166,-19,0,956
08/09/99,12:45:01,444,166,-19,0,956
08/09/99,12:50:01,443,166,-19,0,956
08/09/99,12:55:01,500,166,-19,0,956
08/09/99,13:00:01,482,163,-19,0,956
08/09/99,13:05:01,522,163,-19,0,956
08/09/99,13:10:01,549,164,-19,0,956
08/09/99,13:15:01,477,164,-19,0,956
08/09/99,13:20:01,524,164,-19,0,956
08/09/99,13:25:01,582,174,-19,0,956
08/09/99,13:30:01,551,174,-19,0,956
08/09/99,13:35:01,554,164,-19,0,956
08/09/99,13:40:01,509,164,-19,0,956
08/09/99,13:45:01,508,164,-19,0,956
08/09/99,13:50:01,488,174,-19,0,956
08/09/99,13:55:01,505,164,-19,0,956
08/09/99,14:00:01,508,175,-19,0,956
08/09/99,14:05:01,456,174,-19,0,956
08/09/99,14:10:01,509,174,-19,0,956
08/09/99,14:15:01,492,174,-19,0,956
08/09/99,14:20:01,423,174,-19,0,956
08/09/99,14:25:01,367,174,-19,0,958
08/09/99,14:30:01,306,185,-19,0,958
08/09/99,14:35:01,314,185,-19,0,958
08/09/99,14:40:01,326,185,-19,0,958
08/09/99,14:45:01,307,183,-19,0,958
08/09/99,14:50:01,332,183,-19,0,958
08/09/99,14:55:01,361,168,-19,0,958
08/09/99,15:00:01,343,168,-19,0,958
08/09/99,15:05:01,320,167,-19,0,958
08/09/99,15:10:01,390,169,-19,0,958
08/09/99,15:15:01,387,169,-19,0,958
08/09/99,15:20:01,324,171,-19,0,958
08/09/99,15:25:01,381,170,-19,0,958
08/09/99,15:30:01,383,170,-19,0,958
08/09/99,15:35:01,408,170,-19,0,958
08/09/99,15:40:01,407,171,-19,0,958
08/09/99,15:45:01,409,171,-19,0,958
08/09/99,15:50:01,321,168,-19,0,958
08/09/99,15:55:01,325,182,-19,0,958
08/09/99,16:00:01,147,245,-19,0,958
08/09/99,16:05:01,174,267,-19,0,958
08/09/99,16:10:01,134,278,-19,0,958
08/09/99,16:15:01,84,274,-19,0,958
08/09/99,16:20:01,65,240,-19,0,958
08/09/99,16:25:01,45,304,-19,0,958
08/09/99,16:30:01,29,309,-19,0,958
08/09/99,16:35:01,8,254,-19,0,958
08/09/99,16:40:01,92,187,-19,0,958
08/09/99,16:45:01,91,175,-19,0,958
08/09/99,16:50:01,96,185,-19,0,958
08/09/99,16:55:01,98,184,-19,0,958
08/09/99,17:00:01,79,187,-19,0,958
08/09/99,17:05:01,89,202,-19,0,958
08/09/99,17:10:01,67,269,-19,0,958
08/09/99,17:15:01,143,285,-19,0,958
08/09/99,17:20:01,144,285,-19,0,958
08/09/99,17:25:01,153,292,-19,0,958
08/09/99,17:30:01,159,278,-19,0,958
08/09/99,17:35:01,113,300,-19,0,958
08/09/99,17:40:01,120,281,-19,0,958
08/09/99,17:45:01,97,296,-19,0,958
08/09/99,17:50:01,15,327,-19,0,958
08/09/99,17:55:01,46,314,-19,0,958
08/09/99,18:00:01,70,298,-19,0,958
08/09/99,18:05:01,85,294,-19,0,958
08/09/99,18:10:01,32,213,-19,0,958
08/09/99,18:15:01,147,248,-19,0,958
08/09/99,18:20:01,125,206,-19,0,958
08/09/99,18:25:01,101,247,-19,0,958
08/09/99,18:30:01,166,201,-19,0,958
08/09/99,18:35:01,142,197,-19,0,958
08/09/99,18:40:01,273,183,-17,0,958
08/09/99,18:45:01,321,176,-17,0,958
08/09/99,18:50:01,398,176,-17,0,958
08/09/99,18:55:01,436,176,-17,0,958
08/09/99,19:00:01,400,176,-17,0,958
08/09/99,19:05:01,465,176,-17,0,958
08/09/99,19:10:01,480,176,-17,0,958
08/09/99,19:15:01,485,172,-17,0,958
08/09/99,19:20:01,414,172,-17,0,958
08/09/99,19:25:01,410,172,-17,0,958
08/09/99,19:30:01,468,172,-17,0,958
08/09/99,19:35:01,327,172,-17,0,958
08/09/99,19:40:01,402,172,-17,0,958
08/09/99,19:45:01,433,172,-17,0,958
08/09/99,19:50:01,393,172,-17,0,958
08/09/99,19:55:01,416,182,-17,0,956
08/09/99,20:00:01,479,182,-17,0,956
08/09/99,20:05:01,388,193,-17,0,956
08/09/99,20:10:01,368,205,-17,0,956
08/09/99,20:15:01,329,211,-17,0,956
08/09/99,20:20:01,268,221,-17,0,958
08/09/99,20:25:01,225,243,-17,0,958
08/09/99,20:30:01,233,248,-17,0,958
08/09/99,20:35:01,219,241,-17,0,958
08/09/99,20:40:01,223,221,-17,0,958
08/09/99,20:45:01,243,210,-17,0,958
08/09/99,20:50:01,232,213,-17,0,958
08/09/99,20:55:01,186,215,-17,0,958
08/09/99,21:00:01,203,199,-17,0,958
08/09/99,21:05:01,127,198,-17,0,958
08/09/99,21:10:01,116,213,-17,0,958
08/09/99,21:15:01,198,204,-17,0,958
08/09/99,21:20:01,149,205,-17,0,958
08/09/99,21:25:01,210,197,-17,0,958
08/09/99,21:30:01,220,191,-17,0,958
08/09/99,21:35:01,257,175,-17,0,958
08/09/99,21:40:01,269,184,-17,0,958
08/09/99,21:45:01,351,198,-17,0,958
08/09/99,21:50:01,289,183,-17,0,958
08/09/99,21:55:01,114,225,-17,0,958
08/09/99,22:00:01,102,282,-17,0,958
08/09/99,22:05:01,160,242,-17,0,958
08/09/99,22:10:01,117,227,-17,0,958
08/09/99,22:15:01,85,290,-17,0,958
08/09/99,22:20:01,75,305,-17,0,958
08/09/99,22:25:01,107,310,-17,0,958
08/09/99,22:30:01,12,315,-17,0,958
08/09/99,22:35:01,100,287,-17,0,958
08/09/99,22:40:01,141,302,-17,0,958
08/09/99,22:45:01,86,312,-19,0,958
08/09/99,22:50:01,39,301,-19,0,958
08/09/99,22:55:01,19,334,-19,0,958
08/09/99,23:00:01,44,327,-19,0,958
08/09/99,23:05:01,68,318,-19,0,958
08/09/99,23:10:01,93,295,-19,0,958
08/09/99,23:15:01,84,292,-19,0,958
08/09/99,23:20:01,101,311,-19,0,958
08/09/99,23:25:01,89,311,-19,0,958
08/09/99,23:30:01,108,304,-19,0,958
08/09/99,23:35:01,123,286,-19,0,958
08/09/99,23:40:01,116,298,-19,0,958
08/09/99,23:45:01,98,298,-19,0,958
08/09/99,23:50:01,119,320,-19,0,958
08/09/99,23:55:01,107,308,-19,0,958
08/10/99,00:00:01,94,345,-19,0,958
